Saint Bonnet de Bellac- Haute Vienne - France
Donnes mto: dimanche, 11/03/2012
Date Horaire Temp. E. Hum. E. P.atmo. Pluie Vent Direction Direction Ensoleilleme Solaire P. de rose Temp au vent Rafales
11/03/2012 00:00 6,2 C 83 % 1033,1 hPa 0,0 mm 2,5 km/h (1 Bft) N-NE 22 0 min 0 W/m 3,5 C 6,2 C 4,3 km/h (1 Bft)
11/03/2012 00:10 6,1 C 83 % 1033,0 hPa 0,0 mm 2,2 km/h (1 Bft) NE 45 0 min 0 W/m 3,4 C 6,1 C 3,6 km/h (1 Bft)
11/03/2012 00:20 6,0 C 83 % 1033,0 hPa 0,0 mm 1,8 km/h (1 Bft) NE 45 0 min 0 W/m 3,3 C 6,0 C 2,9 km/h (1 Bft)
11/03/2012 00:30 6,0 C 84 % 1032,8 hPa 0,0 mm 4,3 km/h (1 Bft) NE 45 0 min 0 W/m 3,5 C 6,0 C 7,2 km/h (2 Bft)
11/03/2012 00:40 6,1 C 84 % 1032,8 hPa 0,0 mm 5,8 km/h (2 Bft) N-NE 22 0 min 0 W/m 3,6 C 5,1 C 6,5 km/h (2 Bft)
11/03/2012 00:50 6,2 C 85 % 1032,7 hPa 0,0 mm 3,2 km/h (1 Bft) NE 45 0 min 0 W/m 3,9 C 6,2 C 6,1 km/h (2 Bft)
11/03/2012 01:00 6,4 C 85 % 1032,8 hPa 0,0 mm 3,2 km/h (1 Bft) NE 45 0 min 0 W/m 4,1 C 6,4 C 4,0 km/h (1 Bft)
11/03/2012 01:10 6,5 C 85 % 1032,7 hPa 0,0 mm 2,5 km/h (1 Bft) N-NE 22 0 min 0 W/m 4,2 C 6,5 C 4,3 km/h (1 Bft)
11/03/2012 01:20 6,6 C 85 % 1032,9 hPa 0,0 mm 3,2 km/h (1 Bft) NE 45 0 min 0 W/m 4,3 C 6,6 C 3,2 km/h (1 Bft)
11/03/2012 01:30 6,8 C 85 % 1032,9 hPa 0,0 mm 5,0 km/h (1 Bft) N-NE 22 0 min 0 W/m 4,5 C 6,1 C 7,9 km/h (2 Bft)
11/03/2012 01:40 6,9 C 85 % 1033,1 hPa 0,0 mm 7,6 km/h (2 Bft) N-NE 22 0 min 0 W/m 4,6 C 5,5 C 8,6 km/h (2 Bft)
11/03/2012 01:50 7,1 C 85 % 1033,1 hPa 0,0 mm 5,8 km/h (2 Bft) NE 45 0 min 0 W/m 4,8 C 6,2 C 9,4 km/h (2 Bft)
11/03/2012 02:02 7,3 C 85 % 1033,0 hPa 0,0 mm 4,7 km/h (1 Bft) NE 45 0 min 0 W/m 4,9 C 6,8 C 10,1 km/h (2 Bft)
11/03/2012 02:10 7,4 C 85 % 1032,9 hPa 0,0 mm 10,1 km/h (2 Bft) N-NE 22 0 min 0 W/m 5,0 C 5,5 C 13,3 km/h (3 Bft)
11/03/2012 02:20 7,5 C 85 % 1032,9 hPa 0,0 mm 6,8 km/h (2 Bft) NE 45 0 min 0 W/m 5,1 C 6,4 C 9,0 km/h (2 Bft)
11/03/2012 02:30 7,7 C 85 % 1032,8 hPa 0,0 mm 5,0 km/h (1 Bft) NE 45 0 min 0 W/m 5,3 C 7,1 C 8,3 km/h (2 Bft)
11/03/2012 02:40 7,8 C 85 % 1032,7 hPa 0,0 mm 4,7 km/h (1 Bft) E-NE 67 0 min 0 W/m 5,4 C 7,4 C 6,5 km/h (2 Bft)
11/03/2012 02:50 7,8 C 85 % 1032,6 hPa 0,0 mm 8,3 km/h (2 Bft) NE 45 0 min 0 W/m 5,4 C 6,4 C 10,1 km/h (2 Bft)
11/03/2012 03:00 7,9 C 85 % 1032,6 hPa 0,0 mm 9,4 km/h (2 Bft) NE 45 0 min 0 W/m 5,5 C 6,2 C 12,2 km/h (2 Bft)
11/03/2012 03:10 8,0 C 85 % 1032,5 hPa 0,0 mm 10,4 km/h (2 Bft) E-NE 67 0 min 0 W/m 5,6 C 6,2 C 17,6 km/h (3 Bft)
11/03/2012 03:20 8,1 C 85 % 1032,6 hPa 0,0 mm 10,1 km/h (2 Bft) NE 45 0 min 0 W/m 5,7 C 6,3 C 15,1 km/h (3 Bft)
11/03/2012 03:30 8,2 C 85 % 1032,4 hPa 0,0 mm 6,1 km/h (2 Bft) NE 45 0 min 0 W/m 5,8 C 7,4 C 6,5 km/h (2 Bft)
11/03/2012 03:40 8,3 C 85 % 1032,4 hPa 0,0 mm 10,1 km/h (2 Bft) NE 45 0 min 0 W/m 5,9 C 6,6 C 16,2 km/h (3 Bft)
11/03/2012 03:50 8,3 C 85 % 1032,4 hPa 0,0 mm 6,1 km/h (2 Bft) NE 45 0 min 0 W/m 5,9 C 7,5 C 8,6 km/h (2 Bft)
11/03/2012 04:00 8,4 C 85 % 1032,2 hPa 0,0 mm 9,4 km/h (2 Bft) NE 45 0 min 0 W/m 6,0 C 6,8 C 10,4 km/h (2 Bft)
11/03/2012 04:10 8,5 C 85 % 1032,2 hPa 0,0 mm 11,2 km/h (2 Bft) NE 45 0 min 0 W/m 6,1 C 6,6 C 12,2 km/h (2 Bft)
11/03/2012 04:20 8,5 C 85 % 1032,1 hPa 0,0 mm 5,0 km/h (1 Bft) E-SE 112 0 min 0 W/m 6,1 C 8,1 C 8,6 km/h (2 Bft)
11/03/2012 04:30 8,6 C 84 % 1032,0 hPa 0,0 mm 8,3 km/h (2 Bft) N-NE 22 0 min 0 W/m 6,1 C 7,3 C 14,4 km/h (3 Bft)
11/03/2012 04:40 8,6 C 84 % 1031,9 hPa 0,0 mm 5,8 km/h (2 Bft) NE 45 0 min 0 W/m 6,1 C 7,9 C 9,7 km/h (2 Bft)
11/03/2012 04:50 8,6 C 84 % 1031,7 hPa 0,0 mm 6,8 km/h (2 Bft) E-NE 67 0 min 0 W/m 6,1 C 7,6 C 9,0 km/h (2 Bft)
11/03/2012 05:00 8,6 C 84 % 1031,5 hPa 0,0 mm 10,8 km/h (2 Bft) E-NE 67 0 min 0 W/m 6,1 C 6,8 C 12,6 km/h (3 Bft)
11/03/2012 05:10 8,5 C 84 % 1031,5 hPa 0,0 mm 7,6 km/h (2 Bft) N-NE 22 0 min 0 W/m 6,0 C 7,3 C 9,7 km/h (2 Bft)
11/03/2012 05:20 8,3 C 84 % 1031,4 hPa 0,0 mm 3,2 km/h (1 Bft) NE 45 0 min 0 W/m 5,8 C 8,3 C 6,5 km/h (2 Bft)
11/03/2012 05:30 8,0 C 83 % 1031,5 hPa 0,0 mm 5,8 km/h (2 Bft) NE 45 0 min 0 W/m 5,3 C 7,2 C 9,7 km/h (2 Bft)
11/03/2012 05:40 7,8 C 84 % 1031,6 hPa 0,0 mm 7,2 km/h (2 Bft) NE 45 0 min 0 W/m 5,3 C 6,6 C 10,1 km/h (2 Bft)
11/03/2012 05:50 7,6 C 85 % 1031,5 hPa 0,0 mm 7,2 km/h (2 Bft) N-NE 22 0 min 0 W/m 5,2 C 6,4 C 7,6 km/h (2 Bft)
11/03/2012 06:00 7,4 C 85 % 1031,6 hPa 0,0 mm 8,3 km/h (2 Bft) NE 45 0 min 0 W/m 5,0 C 5,9 C 10,8 km/h (2 Bft)
11/03/2012 06:10 7,3 C 86 % 1031,5 hPa 0,0 mm 10,1 km/h (2 Bft) N-NE 22 0 min 0 W/m 5,1 C 5,4 C 14,0 km/h (3 Bft)
11/03/2012 06:20 7,4 C 87 % 1031,5 hPa 0,0 mm 8,6 km/h (2 Bft) NE 45 0 min 0 W/m 5,4 C 5,8 C 8,6 km/h (2 Bft)
11/03/2012 06:30 7,5 C 87 % 1031,5 hPa 0,0 mm 4,7 km/h (1 Bft) N-NE 22 0 min 0 W/m 5,5 C 7,0 C 6,8 km/h (2 Bft)
11/03/2012 06:40 7,6 C 87 % 1031,4 hPa 0,0 mm 6,8 km/h (2 Bft) N-NE 22 0 min 0 W/m 5,6 C 6,5 C 10,4 km/h (2 Bft)
11/03/2012 06:50 7,7 C 87 % 1031,3 hPa 0,0 mm 9,7 km/h (2 Bft) N-NE 22 0 min 0 W/m 5,7 C 5,9 C 14,8 km/h (3 Bft)
11/03/2012 07:00 7,8 C 87 % 1031,4 hPa 0,0 mm 10,1 km/h (2 Bft) NE 45 0 min 0 W/m 5,8 C 6,0 C 11,5 km/h (2 Bft)
11/03/2012 07:10 7,8 C 88 % 1031,5 hPa 0,0 mm 5,0 km/h (1 Bft) NE 45 0 min 0 W/m 5,9 C 7,3 C 8,3 km/h (2 Bft)
11/03/2012 07:20 7,8 C 88 % 1031,4 hPa 0,0 mm 4,7 km/h (1 Bft) N-NE 22 0 min 0 W/m 5,9 C 7,4 C 8,6 km/h (2 Bft)
11/03/2012 07:30 7,8 C 88 % 1031,4 hPa 0,0 mm 7,2 km/h (2 Bft) N 360 2 min 0 W/m 5,9 C 6,6 C 8,3 km/h (2 Bft)
11/03/2012 07:40 7,8 C 88 % 1031,5 hPa 0,0 mm 7,9 km/h (2 Bft) N-NE 22 2 min 0 W/m 5,9 C 6,4 C 11,5 km/h (2 Bft)
11/03/2012 07:50 7,6 C 88 % 1031,5 hPa 0,0 mm 7,9 km/h (2 Bft) N-NE 22 2 min 0 W/m 5,7 C 6,2 C 11,9 km/h (2 Bft)
11/03/2012 08:00 7,5 C 89 % 1031,5 hPa 0,0 mm 9,0 km/h (2 Bft) E-NE 67 2 min 0 W/m 5,8 C 5,8 C 11,9 km/h (2 Bft)
11/03/2012 08:10 7,5 C 89 % 1031,6 hPa 0,0 mm 8,6 km/h (2 Bft) N-NE 22 2 min 0 W/m 5,8 C 5,9 C 11,5 km/h (2 Bft)
11/03/2012 08:20 7,6 C 89 % 1031,8 hPa 0,0 mm 10,8 km/h (2 Bft) NE 45 2 min 0 W/m 5,9 C 5,6 C 11,5 km/h (2 Bft)
11/03/2012 08:30 7,8 C 89 % 1031,9 hPa 0,0 mm 10,1 km/h (2 Bft) N-NE 22 2 min 0 W/m 6,1 C 6,0 C 16,2 km/h (3 Bft)
11/03/2012 08:40 7,8 C 89 % 1031,8 hPa 0,0 mm 9,0 km/h (2 Bft) NE 45 2 min 0 W/m 6,1 C 6,2 C 9,7 km/h (2 Bft)
11/03/2012 08:50 7,9 C 89 % 1031,9 hPa 0,0 mm 6,8 km/h (2 Bft) NE 45 2 min 0 W/m 6,2 C 6,8 C 9,0 km/h (2 Bft)
11/03/2012 09:00 8,0 C 89 % 1032,0 hPa 0,0 mm 10,1 km/h (2 Bft) NE 45 2 min 0 W/m 6,3 C 6,2 C 14,4 km/h (3 Bft)
11/03/2012 09:10 8,2 C 89 % 1032,1 hPa 0,0 mm 11,9 km/h (2 Bft) E 90 2 min 0 W/m 6,5 C 6,2 C 15,5 km/h (3 Bft)
11/03/2012 09:20 8,3 C 89 % 1032,1 hPa 0,0 mm 8,6 km/h (2 Bft) N-NE 22 2 min 0 W/m 6,6 C 6,9 C 11,5 km/h (2 Bft)
11/03/2012 09:30 8,4 C 89 % 1032,2 hPa 0,0 mm 9,7 km/h (2 Bft) N-NE 22 2 min 0 W/m 6,7 C 6,8 C 12,6 km/h (3 Bft)
11/03/2012 09:40 8,4 C 89 % 1032,1 hPa 0,0 mm 9,4 km/h (2 Bft) NE 45 2 min 0 W/m 6,7 C 6,8 C 15,1 km/h (3 Bft)
11/03/2012 09:50 8,5 C 89 % 1032,2 hPa 0,0 mm 10,8 km/h (2 Bft) N-NE 22 2 min 0 W/m 6,8 C 6,7 C 16,9 km/h (3 Bft)
11/03/2012 10:00 8,6 C 89 % 1032,1 hPa 0,0 mm 7,9 km/h (2 Bft) NE 45 2 min 0 W/m 6,9 C 7,4 C 9,7 km/h (2 Bft)
11/03/2012 10:10 8,8 C 89 % 1032,1 hPa 0,0 mm 8,6 km/h (2 Bft) N-NE 22 2 min 0 W/m 7,1 C 7,5 C 15,1 km/h (3 Bft)
11/03/2012 10:20 9,1 C 89 % 1032,1 hPa 0,0 mm 7,2 km/h (2 Bft) N-NE 22 2 min 0 W/m 7,4 C 8,1 C 8,3 km/h (2 Bft)
11/03/2012 10:30 9,4 C 88 % 1032,0 hPa 0,0 mm 7,9 km/h (2 Bft) NE 45 2 min 0 W/m 7,5 C 8,3 C 9,7 km/h (2 Bft)
11/03/2012 10:40 9,8 C 87 % 1032,1 hPa 0,0 mm 13,7 km/h (3 Bft) NE 45 2 min 0 W/m 7,7 C 7,8 C 19,8 km/h (3 Bft)
11/03/2012 10:50 9,8 C 85 % 1032,1 hPa 0,0 mm 11,5 km/h (2 Bft) N-NE 22 2 min 0 W/m 7,4 C 8,1 C 20,5 km/h (4 Bft)
11/03/2012 11:00 9,8 C 84 % 1032,1 hPa 0,0 mm 9,0 km/h (2 Bft) N-NE 22 2 min 0 W/m 7,2 C 8,6 C 11,5 km/h (2 Bft)
11/03/2012 11:10 9,9 C 84 % 1032,1 hPa 0,0 mm 8,6 km/h (2 Bft) N-NE 22 2 min 0 W/m 7,3 C 8,8 C 8,6 km/h (2 Bft)
11/03/2012 11:20 10,0 C 84 % 1032,0 hPa 0,0 mm 7,9 km/h (2 Bft) NE 45 2 min 0 W/m 7,4 C 9,0 C 7,9 km/h (2 Bft)
11/03/2012 11:30 10,2 C 84 % 1032,0 hPa 0,0 mm 9,0 km/h (2 Bft) NE 45 2 min 0 W/m 7,6 C 10,2 C 11,2 km/h (2 Bft)
11/03/2012 11:40 10,3 C 83 % 1032,0 hPa 0,0 mm 12,2 km/h (2 Bft) N-NE 22 2 min 0 W/m 7,5 C 10,3 C 17,3 km/h (3 Bft)
11/03/2012 11:50 10,4 C 83 % 1032,0 hPa 0,0 mm 9,4 km/h (2 Bft) N-NE 22 2 min 0 W/m 7,6 C 10,4 C 10,8 km/h (2 Bft)
11/03/2012 12:00 10,3 C 83 % 1032,0 hPa 0,0 mm 7,6 km/h (2 Bft) N-NE 22 2 min 0 W/m 7,5 C 10,3 C 8,3 km/h (2 Bft)
11/03/2012 12:10 10,3 C 84 % 1032,0 hPa 0,0 mm 10,4 km/h (2 Bft) N-NE 22 2 min 0 W/m 7,7 C 10,3 C 10,4 km/h (2 Bft)
11/03/2012 12:20 10,1 C 84 % 1032,0 hPa 0,0 mm 11,5 km/h (2 Bft) NE 45 2 min 0 W/m 7,5 C 10,1 C 16,6 km/h (3 Bft)
11/03/2012 12:30 10,1 C 84 % 1032,0 hPa 0,0 mm 11,5 km/h (2 Bft) N-NE 22 2 min 0 W/m 7,5 C 10,1 C 15,8 km/h (3 Bft)
11/03/2012 12:40 10,1 C 84 % 1032,1 hPa 0,0 mm 12,6 km/h (3 Bft) N-NE 22 2 min 0 W/m 7,5 C 10,1 C 17,3 km/h (3 Bft)
11/03/2012 12:50 10,3 C 85 % 1032,0 hPa 0,0 mm 12,6 km/h (3 Bft) E-NE 67 2 min 0 W/m 7,9 C 10,3 C 18,0 km/h (3 Bft)
11/03/2012 13:00 10,5 C 84 % 1032,0 hPa 0,0 mm 8,6 km/h (2 Bft) NE 45 2 min 0 W/m 7,9 C 10,5 C 8,6 km/h (2 Bft)
11/03/2012 13:10 10,6 C 84 % 1031,9 hPa 0,0 mm 9,0 km/h (2 Bft) NE 45 2 min 0 W/m 8,0 C 10,6 C 9,0 km/h (2 Bft)
11/03/2012 13:20 10,9 C 84 % 1031,8 hPa 0,0 mm 12,6 km/h (3 Bft) NE 45 2 min 0 W/m 8,3 C 10,9 C 19,8 km/h (3 Bft)
11/03/2012 13:30 11,3 C 83 % 1031,6 hPa 0,0 mm 10,4 km/h (2 Bft) N-NE 22 2 min 0 W/m 8,5 C 11,3 C 10,4 km/h (2 Bft)
11/03/2012 13:40 11,7 C 81 % 1031,4 hPa 0,0 mm 10,4 km/h (2 Bft) N 360 2 min 0 W/m 8,5 C 11,7 C 21,6 km/h (4 Bft)
11/03/2012 13:50 12,1 C 80 % 1031,3 hPa 0,0 mm 9,4 km/h (2 Bft) NE 45 2 min 0 W/m 8,8 C 12,1 C 13,7 km/h (3 Bft)
11/03/2012 14:00 12,4 C 78 % 1031,2 hPa 0,0 mm 10,4 km/h (2 Bft) N-NE 22 2 min 0 W/m 8,7 C 12,4 C 15,1 km/h (3 Bft)
11/03/2012 14:10 12,8 C 76 % 1031,1 hPa 0,0 mm 6,5 km/h (2 Bft) NE 45 2 min 0 W/m 8,7 C 12,8 C 13,0 km/h (3 Bft)
11/03/2012 14:20 12,8 C 75 % 1031,0 hPa 0,0 mm 9,4 km/h (2 Bft) N-NE 22 2 min 0 W/m 8,5 C 12,8 C 15,5 km/h (3 Bft)
11/03/2012 14:30 12,6 C 74 % 1030,7 hPa 0,0 mm 13,3 km/h (3 Bft) E-NE 67 2 min 0 W/m 8,1 C 12,6 C 20,2 km/h (4 Bft)
11/03/2012 14:40 12,4 C 73 % 1030,6 hPa 0,0 mm 12,2 km/h (2 Bft) N-NE 22 2 min 0 W/m 7,7 C 12,4 C 12,2 km/h (2 Bft)
11/03/2012 14:50 12,2 C 73 % 1030,5 hPa 0,0 mm 9,4 km/h (2 Bft) NE 45 2 min 0 W/m 7,5 C 12,2 C 11,5 km/h (2 Bft)
11/03/2012 15:00 12,1 C 73 % 1030,4 hPa 0,0 mm 11,9 km/h (2 Bft) N-NE 22 2 min 0 W/m 7,4 C 12,1 C 17,6 km/h (3 Bft)
11/03/2012 15:10 12,2 C 73 % 1030,3 hPa 0,0 mm 7,2 km/h (2 Bft) E-NE 67 2 min 0 W/m 7,5 C 12,2 C 11,2 km/h (2 Bft)
11/03/2012 15:20 12,2 C 73 % 1030,3 hPa 0,0 mm 10,1 km/h (2 Bft) N-NE 22 2 min 0 W/m 7,5 C 12,2 C 14,0 km/h (3 Bft)
11/03/2012 15:30 12,1 C 73 % 1030,1 hPa 0,0 mm 10,1 km/h (2 Bft) E-NE 67 2 min 0 W/m 7,4 C 12,1 C 17,3 km/h (3 Bft)
11/03/2012 15:40 12,3 C 74 % 1030,0 hPa 0,0 mm 11,2 km/h (2 Bft) NE 45 2 min 0 W/m 7,8 C 12,3 C 19,8 km/h (3 Bft)
11/03/2012 15:50 12,6 C 73 % 1029,8 hPa 0,0 mm 10,4 km/h (2 Bft) NE 45 2 min 0 W/m 7,9 C 12,6 C 20,2 km/h (4 Bft)
11/03/2012 16:00 12,8 C 72 % 1029,8 hPa 0,0 mm 9,7 km/h (2 Bft) NE 45 2 min 0 W/m 7,9 C 12,8 C 14,8 km/h (3 Bft)
11/03/2012 16:10 12,9 C 71 % 1029,7 hPa 0,0 mm 14,0 km/h (3 Bft) NE 45 2 min 0 W/m 7,8 C 12,9 C 18,4 km/h (3 Bft)
11/03/2012 16:20 13,1 C 71 % 1029,7 hPa 0,0 mm 7,9 km/h (2 Bft) N-NE 22 2 min 0 W/m 8,0 C 13,1 C 13,0 km/h (3 Bft)
11/03/2012 16:30 13,1 C 71 % 1029,7 hPa 0,0 mm 6,5 km/h (2 Bft) E-NE 67 2 min 0 W/m 8,0 C 13,1 C 8,3 km/h (2 Bft)
11/03/2012 16:40 13,1 C 71 % 1029,6 hPa 0,0 mm 6,8 km/h (2 Bft) N-NE 22 2 min 0 W/m 8,0 C 13,1 C 10,8 km/h (2 Bft)
11/03/2012 16:50 13,1 C 69 % 1029,6 hPa 0,0 mm 10,4 km/h (2 Bft) E-NE 67 2 min 0 W/m 7,5 C 13,1 C 15,8 km/h (3 Bft)
11/03/2012 17:00 13,1 C 69 % 1029,5 hPa 0,0 mm 5,8 km/h (2 Bft) N-NE 22 2 min 0 W/m 7,5 C 13,1 C 9,4 km/h (2 Bft)
11/03/2012 17:10 12,9 C 69 % 1029,6 hPa 0,0 mm 9,4 km/h (2 Bft) N-NE 22 2 min 0 W/m 7,4 C 12,9 C 13,7 km/h (3 Bft)
11/03/2012 17:20 12,8 C 70 % 1029,5 hPa 0,0 mm 10,4 km/h (2 Bft) N-NE 22 2 min 0 W/m 7,5 C 12,8 C 10,4 km/h (2 Bft)
11/03/2012 17:30 12,6 C 72 % 1029,4 hPa 0,0 mm 12,6 km/h (3 Bft) N-NE 22 2 min 0 W/m 7,7 C 12,6 C 17,6 km/h (3 Bft)
11/03/2012 17:40 12,4 C 72 % 1029,3 hPa 0,0 mm 14,4 km/h (3 Bft) N 360 2 min 0 W/m 7,5 C 12,4 C 24,1 km/h (4 Bft)
11/03/2012 17:50 12,3 C 73 % 1029,3 hPa 0,0 mm 10,4 km/h (2 Bft) N-NE 22 2 min 0 W/m 7,6 C 12,3 C 12,6 km/h (3 Bft)
11/03/2012 18:00 12,1 C 73 % 1029,4 hPa 0,0 mm 11,9 km/h (2 Bft) N-NE 22 2 min 0 W/m 7,4 C 12,1 C 15,8 km/h (3 Bft)
11/03/2012 18:10 11,9 C 73 % 1029,3 hPa 0,0 mm 4,0 km/h (1 Bft) N-NE 22 2 min 0 W/m 7,2 C 11,9 C 4,0 km/h (1 Bft)
11/03/2012 18:20 11,8 C 74 % 1029,4 hPa 0,0 mm 8,3 km/h (2 Bft) NE 45 2 min 0 W/m 7,3 C 11,8 C 13,3 km/h (3 Bft)
11/03/2012 18:30 11,5 C 74 % 1029,4 hPa 0,0 mm 7,6 km/h (2 Bft) NE 45 2 min 0 W/m 7,0 C 11,5 C 9,7 km/h (2 Bft)
11/03/2012 18:40 11,4 C 75 % 1029,4 hPa 0,0 mm 6,5 km/h (2 Bft) N-NE 22 2 min 0 W/m 7,1 C 11,4 C 9,7 km/h (2 Bft)
11/03/2012 18:50 11,2 C 75 % 1029,4 hPa 0,0 mm 6,8 km/h (2 Bft) N-NE 22 0 min 0 W/m 6,9 C 11,2 C 12,2 km/h (2 Bft)
11/03/2012 19:00 11,0 C 76 % 1029,5 hPa 0,0 mm 6,1 km/h (2 Bft) N-NE 22 0 min 0 W/m 6,9 C 11,0 C 9,0 km/h (2 Bft)
11/03/2012 19:10 10,8 C 76 % 1029,5 hPa 0,0 mm 2,5 km/h (1 Bft) E-NE 67 0 min 0 W/m 6,7 C 10,8 C 5,8 km/h (2 Bft)
11/03/2012 19:20 10,6 C 76 % 1029,5 hPa 0,0 mm 4,0 km/h (1 Bft) N-NE 22 0 min 0 W/m 6,5 C 10,6 C 7,6 km/h (2 Bft)
11/03/2012 19:30 10,5 C 77 % 1029,5 hPa 0,0 mm 5,4 km/h (2 Bft) N-NE 22 0 min 0 W/m 6,6 C 10,5 C 5,4 km/h (2 Bft)
11/03/2012 19:40 10,5 C 78 % 1029,5 hPa 0,0 mm 6,8 km/h (2 Bft) N-NE 22 0 min 0 W/m 6,8 C 10,5 C 6,8 km/h (2 Bft)
11/03/2012 19:50 10,4 C 78 % 1029,6 hPa 0,0 mm 5,8 km/h (2 Bft) NE 45 0 min 0 W/m 6,7 C 10,4 C 10,1 km/h (2 Bft)
11/03/2012 20:00 10,5 C 78 % 1029,5 hPa 0,0 mm 4,0 km/h (1 Bft) N-NE 22 0 min 0 W/m 6,8 C 10,5 C 4,0 km/h (1 Bft)
11/03/2012 20:10 10,6 C 78 % 1029,4 hPa 0,0 mm 7,9 km/h (2 Bft) N-NE 22 0 min 0 W/m 6,9 C 10,6 C 14,4 km/h (3 Bft)
11/03/2012 20:20 10,6 C 78 % 1029,5 hPa 0,0 mm 9,7 km/h (2 Bft) N 360 0 min 0 W/m 6,9 C 10,6 C 16,2 km/h (3 Bft)
11/03/2012 20:30 10,8 C 78 % 1029,5 hPa 0,0 mm 9,4 km/h (2 Bft) N-NE 22 0 min 0 W/m 7,1 C 10,8 C 14,4 km/h (3 Bft)
11/03/2012 20:40 10,8 C 78 % 1029,5 hPa 0,0 mm 6,5 km/h (2 Bft) NE 45 0 min 0 W/m 7,1 C 10,8 C 8,3 km/h (2 Bft)
11/03/2012 20:50 10,8 C 78 % 1029,4 hPa 0,0 mm 6,8 km/h (2 Bft) N-NE 22 0 min 0 W/m 7,1 C 10,8 C 7,9 km/h (2 Bft)
11/03/2012 21:00 10,8 C 78 % 1029,4 hPa 0,0 mm 11,2 km/h (2 Bft) NE 45 0 min 0 W/m 7,1 C 10,8 C 20,9 km/h (4 Bft)
11/03/2012 21:10 10,8 C 78 % 1029,5 hPa 0,0 mm 10,8 km/h (2 Bft) E-NE 67 0 min 0 W/m 7,1 C 10,8 C 10,8 km/h (2 Bft)
11/03/2012 21:20 10,8 C 78 % 1029,5 hPa 0,0 mm 6,8 km/h (2 Bft) N 360 0 min 0 W/m 7,1 C 10,8 C 14,4 km/h (3 Bft)
11/03/2012 21:30 10,7 C 78 % 1029,4 hPa 0,0 mm 6,1 km/h (2 Bft) NE 45 0 min 0 W/m 7,0 C 10,7 C 6,1 km/h (2 Bft)
11/03/2012 21:40 10,6 C 78 % 1029,4 hPa 0,0 mm 9,7 km/h (2 Bft) NE 45 0 min 0 W/m 6,9 C 10,6 C 10,4 km/h (2 Bft)
11/03/2012 21:50 10,6 C 78 % 1029,3 hPa 0,0 mm 5,0 km/h (1 Bft) NE 45 0 min 0 W/m 6,9 C 10,6 C 5,0 km/h (1 Bft)
11/03/2012 22:00 10,6 C 78 % 1029,3 hPa 0,0 mm 14,4 km/h (3 Bft) E 90 0 min 0 W/m 6,9 C 10,6 C 20,9 km/h (4 Bft)
11/03/2012 22:10 10,6 C 77 % 1029,3 hPa 0,0 mm 7,6 km/h (2 Bft) N-NE 22 0 min 0 W/m 6,7 C 10,6 C 10,4 km/h (2 Bft)
11/03/2012 22:20 10,6 C 76 % 1029,3 hPa 0,0 mm 9,4 km/h (2 Bft) NE 45 0 min 0 W/m 6,5 C 10,6 C 16,6 km/h (3 Bft)
11/03/2012 22:30 10,6 C 76 % 1029,2 hPa 0,0 mm 10,4 km/h (2 Bft) NE 45 0 min 0 W/m 6,5 C 10,6 C 10,4 km/h (2 Bft)
11/03/2012 22:40 10,4 C 76 % 1029,1 hPa 0,0 mm 8,3 km/h (2 Bft) N-NE 22 0 min 0 W/m 6,4 C 10,4 C 8,3 km/h (2 Bft)
11/03/2012 22:50 10,3 C 76 % 1029,1 hPa 0,0 mm 7,6 km/h (2 Bft) N-NO 337 0 min 0 W/m 6,3 C 10,3 C 10,1 km/h (2 Bft)
11/03/2012 23:00 10,3 C 76 % 1029,1 hPa 0,0 mm 6,8 km/h (2 Bft) N-NE 22 0 min 0 W/m 6,3 C 10,3 C 9,0 km/h (2 Bft)
11/03/2012 23:10 10,3 C 77 % 1029,1 hPa 0,0 mm 11,2 km/h (2 Bft) NE 45 0 min 0 W/m 6,4 C 10,3 C 17,3 km/h (3 Bft)
11/03/2012 23:20 10,3 C 77 % 1029,1 hPa 0,0 mm 6,8 km/h (2 Bft) NE 45 0 min 0 W/m 6,4 C 10,3 C 9,4 km/h (2 Bft)
11/03/2012 23:30 10,2 C 78 % 1029,0 hPa 0,0 mm 10,4 km/h (2 Bft) NE 45 0 min 0 W/m 6,5 C 10,2 C 13,0 km/h (3 Bft)
11/03/2012 23:40 10,2 C 78 % 1028,9 hPa 0,0 mm 12,6 km/h (3 Bft) N-NE 22 0 min 0 W/m 6,5 C 10,2 C 16,9 km/h (3 Bft)
11/03/2012 23:50 10,2 C 78 % 1029,0 hPa 0,0 mm 7,6 km/h (2 Bft) N-NO 337 0 min 0 W/m 6,5 C 10,2 C 17,3 km/h (3 Bft)
_ Min-Heure 00:30 17:10 23:40 - 00:20 - - - - 00:20 00:40 00:20
Minimum _ 6,0 C 69 % 1028,9 hPa - 1,8 km/h (1 Bft) - - - - 3,3 C 5,1 C 2,9 km/h (1 Bft)
_ Max-Heure 17:00 10:20 01:50 23:50 22:00 - - 18:40 23:50 13:50 17:00 17:40
Maximum _ 13,1 C 89 % 1033,1 hPa 0,0 mm 14,4 km/h
E (3 Bft)
- - 2 min 0 W/m 8,8 C 13,1 C 24,1 km/h
N (4 Bft)
Moyenne _ 9,7 C 81 % 1031,0 hPa #0,0 mm 8,3 km/h (2 Bft) N-NE - #2:16 h 0 W/m 6,6 C 9,1 C 11,7 km/h (2 Bft)
Saint Bonnet de Bellac- Haute Vienne - France